Time,TemperatureF,DewpointF,PressureIn,WindDirection,WindDirectionDegrees,WindSpeedMPH,WindSpeedGustMPH,Humidity,HourlyPrecipIn,Conditions,Clouds,dailyrainin,SoftwareType,DateUTC
2013-05-05 00:03:00,44.6,43.6,30.05,West,264,0.0,2.0,96,0.00,RA,SKC,0.00,WeatherDisplay:10.37,2013-05-05 05:03:00,
2013-05-05 00:08:00,44.7,43.7,30.06,SW,234,1.0,3.0,96,0.00,CLR,SKC,0.00,WeatherDisplay:10.37,2013-05-05 05:08:00,
2013-05-05 00:13:00,44.8,44.0,30.05,SSW,205,0.0,0.0,97,0.00,CLR,SKC,0.00,WeatherDisplay:10.37,2013-05-05 05:13:00,
2013-05-05 00:18:00,44.8,44.0,30.05,SSW,204,0.0,0.0,97,0.00,CLR,SKC,0.00,WeatherDisplay:10.37,2013-05-05 05:18:00,
2013-05-05 00:28:00,45.2,44.4,30.06,SSW,204,0.0,0.0,97,0.00,CLR,SKC,0.00,WeatherDisplay:10.37,2013-05-05 05:28:00,
2013-05-05 00:33:00,45.2,44.4,30.06,SSW,205,0.0,2.0,97,0.00,CLR,SKC,0.00,WeatherDisplay:10.37,2013-05-05 05:33:00,
2013-05-05 00:38:00,45.2,44.4,30.06,SSW,206,0.0,0.0,97,0.00,CLR,SKC,0.00,WeatherDisplay:10.37,2013-05-05 05:38:00,
2013-05-05 00:43:00,45.3,44.5,30.06,SSW,207,0.0,0.0,97,0.00,CLR,SKC,0.00,WeatherDisplay:10.37,2013-05-05 05:43:00,
2013-05-05 00:48:00,45.3,44.5,30.06,SSW,207,0.0,0.0,97,0.00,CLR,SKC,0.00,WeatherDisplay:10.37,2013-05-05 05:48:00,
2013-05-05 00:53:00,45.5,44.6,30.06,SSW,207,0.0,0.0,97,0.00,CLR,SKC,0.00,WeatherDisplay:10.37,2013-05-05 05:53:00,
2013-05-05 00:58:00,45.6,44.8,30.06,SSW,207,0.0,0.0,97,0.00,CLR,SKC,0.00,WeatherDisplay:10.37,2013-05-05 05:58:00,
2013-05-05 01:03:00,45.7,44.9,30.06,SSW,204,0.0,0.0,97,0.00,CLR,SKC,0.00,WeatherDisplay:10.37,2013-05-05 06:03:00,
2013-05-05 01:08:00,46.0,45.2,30.06,South,186,0.0,2.0,97,0.00,CLR,SKC,0.00,WeatherDisplay:10.37,2013-05-05 06:08:00,
2013-05-05 01:13:00,46.7,46.7,30.06,North,3,1.0,8.0,100,0.00,CLR,SKC,0.00,WeatherDisplay:10.37,2013-05-05 06:13:00,
2013-05-05 01:18:00,47.1,47.1,30.06,North,1,0.0,3.0,100,0.00,CLR,SKC,0.00,WeatherDisplay:10.37,2013-05-05 06:18:00,
2013-05-05 01:23:00,47.3,47.3,30.05,North,349,2.0,5.0,100,0.00,CLR,SKC,0.00,WeatherDisplay:10.37,2013-05-05 06:23:00,
2013-05-05 01:28:00,47.5,47.5,30.05,North,350,2.0,7.0,100,0.00,CLR,SKC,0.00,WeatherDisplay:10.37,2013-05-05 06:28:00,
2013-05-05 01:33:00,47.6,47.6,30.05,North,359,2.0,7.0,100,0.00,CLR,SKC,0.00,WeatherDisplay:10.37,2013-05-05 06:33:00,
2013-05-05 01:38:00,47.6,47.6,30.05,North,4,2.0,8.0,100,0.00,CLR,SKC,0.00,WeatherDisplay:10.37,2013-05-05 06:38:00,
2013-05-05 01:43:00,47.6,46.8,30.05,NNW,348,1.0,7.0,97,0.00,CLR,SKC,0.00,WeatherDisplay:10.37,2013-05-05 06:43:00,
2013-05-05 01:48:00,47.6,46.8,30.05,NNW,339,2.0,8.0,97,0.00,CLR,SKC,0.00,WeatherDisplay:10.37,2013-05-05 06:48:00,
2013-05-05 01:58:00,47.4,46.6,30.05,NNW,348,2.0,3.0,97,0.00,CLR,SKC,0.00,WeatherDisplay:10.37,2013-05-05 06:58:00,
2013-05-05 02:03:00,47.3,46.5,30.05,North,359,1.0,5.0,97,0.00,CLR,SKC,0.00,WeatherDisplay:10.37,2013-05-05 07:03:00,
2013-05-05 02:08:00,47.2,46.4,30.05,NNW,346,2.0,13.0,97,0.00,CLR,SKC,0.00,WeatherDisplay:10.37,2013-05-05 07:08:00,
2013-05-05 02:13:00,47.1,46.3,30.05,NNW,334,7.0,18.0,97,0.00,CLR,SKC,0.00,WeatherDisplay:10.37,2013-05-05 07:13:00,
2013-05-05 02:18:00,47.0,46.2,30.05,North,350,5.0,8.0,97,0.00,CLR,SKC,0.00,WeatherDisplay:10.37,2013-05-05 07:18:00,
2013-05-05 02:23:00,47.0,46.2,30.04,North,355,6.0,12.0,97,0.00,CLR,SKC,0.00,WeatherDisplay:10.37,2013-05-05 07:23:00,
2013-05-05 02:28:00,46.9,46.1,30.04,NNW,332,5.0,13.0,97,0.00,CLR,SKC,0.00,WeatherDisplay:10.37,2013-05-05 07:28:00,
2013-05-05 02:33:00,46.9,46.9,30.04,NNW,327,1.0,8.0,100,0.00,CLR,SKC,0.00,WeatherDisplay:10.37,2013-05-05 07:33:00,
2013-05-05 02:38:00,46.9,46.9,30.04,NNW,343,8.0,13.0,100,0.00,CLR,SKC,0.00,WeatherDisplay:10.37,2013-05-05 07:38:00,
2013-05-05 02:43:00,46.9,46.9,30.04,NNW,337,5.0,10.0,100,0.00,CLR,SKC,0.00,WeatherDisplay:10.37,2013-05-05 07:43:00,
2013-05-05 02:48:00,46.9,46.9,30.04,NNW,328,5.0,7.0,100,0.00,CLR,SKC,0.00,WeatherDisplay:10.37,2013-05-05 07:48:00,
2013-05-05 02:53:00,46.9,46.9,30.04,NNW,332,3.0,10.0,100,0.00,CLR,SKC,0.00,WeatherDisplay:10.37,2013-05-05 07:53:00,
2013-05-05 02:58:00,46.8,46.8,30.03,NNW,337,5.0,8.0,100,0.00,CLR,SKC,0.00,WeatherDisplay:10.37,2013-05-05 07:58:00,
2013-05-05 03:03:00,46.8,46.8,30.03,NNW,329,3.0,8.0,100,0.00,CLR,SKC,0.00,WeatherDisplay:10.37,2013-05-05 08:03:00,
2013-05-05 03:08:00,46.8,46.8,30.03,NNW,332,1.0,5.0,100,0.00,CLR,SKC,0.00,WeatherDisplay:10.37,2013-05-05 08:08:00,
2013-05-05 03:18:00,46.7,46.7,30.04,North,354,5.0,13.0,100,0.00,CLR,SKC,0.00,WeatherDisplay:10.37,2013-05-05 08:18:00,
2013-05-05 03:28:00,46.6,46.6,30.04,NNW,347,8.0,18.0,100,0.00,CLR,SKC,0.00,WeatherDisplay:10.37,2013-05-05 08:28:00,
2013-05-05 03:33:00,46.5,46.5,30.04,NNW,333,6.0,15.0,100,0.00,CLR,SKC,0.00,WeatherDisplay:10.37,2013-05-05 08:33:00,
2013-05-05 03:38:00,46.5,46.5,30.03,NW,321,5.0,13.0,100,0.00,CLR,SKC,0.00,WeatherDisplay:10.37,2013-05-05 08:38:00,
2013-05-05 03:48:00,46.4,46.4,30.04,NNW,339,2.0,8.0,100,0.00,CLR,SKC,0.00,WeatherDisplay:10.37,2013-05-05 08:48:00,
2013-05-05 03:58:00,46.3,46.3,30.05,North,357,2.0,16.0,100,0.00,,SKC,0.00,WeatherDisplay:10.37,2013-05-05 08:58:00,
2013-05-05 04:03:00,46.3,46.3,30.05,NNW,339,2.0,13.0,100,0.00,,SKC,0.00,WeatherDisplay:10.37,2013-05-05 09:03:00,
2013-05-05 04:08:00,46.3,46.3,30.05,North,350,6.0,12.0,100,0.00,,SKC,0.00,WeatherDisplay:10.37,2013-05-05 09:08:00,
2013-05-05 04:13:00,46.3,46.3,30.05,NNW,343,7.0,13.0,100,0.00,,SKC,0.00,WeatherDisplay:10.37,2013-05-05 09:13:00,
2013-05-05 04:18:00,46.3,46.3,30.05,NNW,330,3.0,8.0,100,0.00,,SKC,0.00,WeatherDisplay:10.37,2013-05-05 09:18:00,
2013-05-05 04:23:00,46.3,46.3,30.05,NNW,338,3.0,10.0,100,0.00,,SKC,0.00,WeatherDisplay:10.37,2013-05-05 09:23:00,
2013-05-05 04:28:00,46.3,46.3,30.05,NNW,344,5.0,10.0,100,0.00,,SKC,0.00,WeatherDisplay:10.37,2013-05-05 09:28:00,
2013-05-05 04:33:00,46.3,46.3,30.05,North,351,6.0,13.0,100,0.00,,SKC,0.00,WeatherDisplay:10.37,2013-05-05 09:33:00,
2013-05-05 04:38:00,46.3,46.3,30.06,NNW,346,5.0,13.0,100,0.00,,SKC,0.00,WeatherDisplay:10.37,2013-05-05 09:38:00,
2013-05-05 04:43:00,46.2,46.2,30.06,North,352,3.0,10.0,100,0.00,,SKC,0.00,WeatherDisplay:10.37,2013-05-05 09:43:00,
2013-05-05 04:48:00,46.2,46.2,30.06,North,352,1.0,10.0,100,0.00,,SKC,0.00,WeatherDisplay:10.37,2013-05-05 09:48:00,
2013-05-05 04:53:00,46.2,46.2,30.06,NNW,341,6.0,8.0,100,0.00,,SKC,0.00,WeatherDisplay:10.37,2013-05-05 09:53:00,
2013-05-05 04:58:00,46.1,46.1,30.06,NNW,341,1.0,8.0,100,0.00,,SKC,0.00,WeatherDisplay:10.37,2013-05-05 09:58:00,
2013-05-05 05:03:00,46.0,46.0,30.06,NNW,343,5.0,11.0,100,0.00,,SKC,0.00,WeatherDisplay:10.37,2013-05-05 10:03:00,
2013-05-05 05:08:00,46.0,46.0,30.06,NNW,330,3.0,16.0,100,0.00,,SKC,0.00,WeatherDisplay:10.37,2013-05-05 10:08:00,
2013-05-05 05:13:00,46.0,46.0,30.06,NNW,331,2.0,12.0,100,0.01,RA,SKC,0.01,WeatherDisplay:10.37,2013-05-05 10:13:00,
2013-05-05 05:18:00,46.0,46.0,30.06,North,355,2.0,10.0,100,0.00,RA,SKC,0.01,WeatherDisplay:10.37,2013-05-05 10:18:00,
2013-05-05 05:28:00,45.8,45.8,30.06,North,5,6.0,18.0,100,0.00,CLR,SKC,0.01,WeatherDisplay:10.37,2013-05-05 10:28:00,
2013-05-05 05:38:00,45.8,45.8,30.06,NNW,343,6.0,13.0,100,0.00,,SKC,0.01,WeatherDisplay:10.37,2013-05-05 10:38:00,
2013-05-05 05:48:00,45.8,45.8,30.06,NNW,341,6.0,13.0,100,0.00,,SKC,0.01,WeatherDisplay:10.37,2013-05-05 10:48:00,
2013-05-05 05:53:00,45.7,45.7,30.07,North,354,6.0,10.0,100,0.00,CLR,SKC,0.01,WeatherDisplay:10.37,2013-05-05 10:53:00,
2013-05-05 05:58:00,45.7,45.7,30.07,North,359,5.0,12.0,100,0.00,,SKC,0.01,WeatherDisplay:10.37,2013-05-05 10:58:00,
2013-05-05 06:03:00,45.7,45.7,30.07,North,351,3.0,8.0,100,0.00,,SKC,0.01,WeatherDisplay:10.37,2013-05-05 11:03:00,
2013-05-05 06:08:00,45.7,45.7,30.07,NNW,348,1.0,8.0,100,0.00,,SKC,0.01,WeatherDisplay:10.37,2013-05-05 11:08:00,
2013-05-05 06:18:00,45.7,45.7,30.08,North,351,2.0,8.0,100,0.00,,SKC,0.01,WeatherDisplay:10.37,2013-05-05 11:18:00,
2013-05-05 06:23:00,45.6,45.6,30.08,NNW,338,1.0,8.0,100,0.00,,SKC,0.01,WeatherDisplay:10.37,2013-05-05 11:23:00,
2013-05-05 06:28:00,45.6,45.6,30.08,NW,325,7.0,12.0,100,0.00,,SKC,0.01,WeatherDisplay:10.37,2013-05-05 11:28:00,
2013-05-05 06:33:00,45.5,45.5,30.08,NNW,327,3.0,8.0,100,0.00,,SKC,0.01,WeatherDisplay:10.37,2013-05-05 11:33:00,
2013-05-05 06:38:00,45.5,45.5,30.08,NNW,341,5.0,12.0,100,0.00,,SKC,0.01,WeatherDisplay:10.37,2013-05-05 11:38:00,
2013-05-05 06:48:00,45.4,45.4,30.08,North,359,3.0,8.0,100,0.00,,SKC,0.01,WeatherDisplay:10.37,2013-05-05 11:48:00,
2013-05-05 06:53:00,45.4,45.4,30.09,North,359,3.0,8.0,100,0.00,,SKC,0.01,WeatherDisplay:10.37,2013-05-05 11:53:00,
2013-05-05 06:58:00,45.4,45.4,30.09,North,356,2.0,11.0,100,0.00,,SKC,0.01,WeatherDisplay:10.37,2013-05-05 11:58:00,
2013-05-05 07:03:00,45.4,45.4,30.09,North,353,2.0,10.0,100,0.00,,SKC,0.01,WeatherDisplay:10.37,2013-05-05 12:03:00,
2013-05-05 07:08:00,45.4,45.4,30.09,NNW,336,1.0,9.0,100,0.00,,SKC,0.01,WeatherDisplay:10.37,2013-05-05 12:08:00,
2013-05-05 07:18:00,45.3,45.3,30.09,NNW,342,2.0,12.0,100,0.00,,SKC,0.01,WeatherDisplay:10.37,2013-05-05 12:18:00,
2013-05-05 07:23:00,45.4,45.4,30.10,NNW,329,1.0,7.0,100,0.00,,SKC,0.01,WeatherDisplay:10.37,2013-05-05 12:23:00,
2013-05-05 07:28:00,45.4,45.4,30.10,North,2,0.0,7.0,100,0.00,,SKC,0.01,WeatherDisplay:10.37,2013-05-05 12:28:00,
2013-05-05 07:38:00,45.4,45.4,30.10,NNW,329,6.0,12.0,100,0.00,,SKC,0.01,WeatherDisplay:10.37,2013-05-05 12:38:00,
2013-05-05 07:43:00,45.4,45.4,30.10,North,349,2.0,8.0,100,0.00,,SKC,0.01,WeatherDisplay:10.37,2013-05-05 12:43:00,
2013-05-05 07:48:00,45.4,45.4,30.10,North,1,3.0,8.0,100,0.00,,SKC,0.01,WeatherDisplay:10.37,2013-05-05 12:48:00,
2013-05-05 07:53:00,45.5,45.5,30.10,North,5,5.0,13.0,100,0.00,,SKC,0.01,WeatherDisplay:10.37,2013-05-05 12:53:00,
2013-05-05 08:03:00,45.6,45.6,30.10,NNW,345,2.0,7.0,100,0.00,,SKC,0.01,WeatherDisplay:10.37,2013-05-05 13:03:00,
2013-05-05 08:08:00,45.5,45.5,30.10,NW,325,2.0,10.0,100,0.00,,SKC,0.01,WeatherDisplay:10.37,2013-05-05 13:08:00,
2013-05-05 08:18:00,45.6,45.6,30.10,North,354,3.0,10.0,100,0.00,,SKC,0.01,WeatherDisplay:10.37,2013-05-05 13:18:00,
2013-05-05 08:28:00,45.7,45.7,30.11,North,349,7.0,12.0,100,0.00,,SKC,0.01,WeatherDisplay:10.37,2013-05-05 13:28:00,
2013-05-05 08:38:00,45.6,45.6,30.11,North,351,12.0,16.0,100,0.00,CLR,SKC,0.01,WeatherDisplay:10.37,2013-05-05 13:38:00,
2013-05-05 08:43:00,45.6,45.6,30.11,NNW,348,3.0,12.0,100,0.00,CLR,SKC,0.01,WeatherDisplay:10.37,2013-05-05 13:43:00,
2013-05-05 08:48:00,45.7,45.7,30.11,NNW,332,3.0,8.0,100,0.00,,SKC,0.01,WeatherDisplay:10.37,2013-05-05 13:48:00,
2013-05-05 08:53:00,45.8,45.8,30.11,NNW,344,9.0,13.0,100,0.00,,SKC,0.01,WeatherDisplay:10.37,2013-05-05 13:53:00,
2013-05-05 08:58:00,45.8,45.8,30.12,North,7,14.0,15.0,100,0.00,CLR,SKC,0.01,WeatherDisplay:10.37,2013-05-05 13:58:00,
2013-05-05 09:03:00,46.1,46.1,30.11,North,3,2.0,15.0,100,0.00,CLR,SKC,0.01,WeatherDisplay:10.37,2013-05-05 14:03:00,
2013-05-05 09:08:00,46.3,46.3,30.12,NNW,347,7.0,13.0,100,0.00,,SKC,0.01,WeatherDisplay:10.37,2013-05-05 14:08:00,
2013-05-05 09:13:00,46.4,46.4,30.11,NNW,347,2.0,11.0,100,0.00,CLR,SKC,0.01,WeatherDisplay:10.37,2013-05-05 14:13:00,
2013-05-05 09:18:00,46.6,46.6,30.11,NNW,329,5.0,13.0,100,0.00,CLR,SKC,0.01,WeatherDisplay:10.37,2013-05-05 14:18:00,
2013-05-05 09:23:00,46.8,46.0,30.11,NNW,328,6.0,10.0,97,0.00,CLR,SKC,0.01,WeatherDisplay:10.37,2013-05-05 14:23:00,
2013-05-05 09:28:00,47.2,47.2,30.11,NNW,329,1.0,11.0,100,0.00,CLR,SKC,0.01,WeatherDisplay:10.37,2013-05-05 14:28:00,
2013-05-05 09:38:00,47.5,46.7,30.10,NW,313,2.0,7.0,97,0.00,CLR,SKC,0.01,WeatherDisplay:10.37,2013-05-05 14:38:00,
2013-05-05 09:43:00,47.7,46.8,30.10,NW,325,2.0,7.0,97,0.00,CLR,SKC,0.01,WeatherDisplay:10.37,2013-05-05 14:43:00,
2013-05-05 09:48:00,47.9,47.1,30.11,NNW,335,2.0,3.0,97,0.00,CLR,SKC,0.01,WeatherDisplay:10.37,2013-05-05 14:48:00,
2013-05-05 09:58:00,48.5,47.4,30.11,North,350,1.0,6.0,96,0.00,CLR,SKC,0.01,WeatherDisplay:10.37,2013-05-05 14:58:00,
2013-05-05 10:03:00,48.7,47.6,30.10,NNW,337,3.0,8.0,96,0.00,CLR,SKC,0.01,WeatherDisplay:10.37,2013-05-05 15:03:00,
2013-05-05 10:08:00,48.8,47.7,30.11,NW,321,2.0,8.0,96,0.00,CLR,SKC,0.01,WeatherDisplay:10.37,2013-05-05 15:08:00,
2013-05-05 10:18:00,48.6,47.2,30.11,North,4,9.0,13.0,95,0.00,CLR,SKC,0.01,WeatherDisplay:10.37,2013-05-05 15:18:00,
2013-05-05 10:28:00,48.4,47.1,30.12,North,3,5.0,13.0,95,0.00,CLR,SKC,0.01,WeatherDisplay:10.37,2013-05-05 15:28:00,
2013-05-05 10:38:00,48.7,47.6,30.12,NNW,330,0.0,3.0,96,0.00,CLR,SKC,0.01,WeatherDisplay:10.37,2013-05-05 15:38:00,
2013-05-05 10:43:00,49.0,47.6,30.12,NNW,329,2.0,8.0,95,0.00,CLR,SKC,0.01,WeatherDisplay:10.37,2013-05-05 15:43:00,
2013-05-05 10:48:00,49.3,47.9,30.12,NNW,342,0.0,3.0,95,0.00,CLR,SKC,0.01,WeatherDisplay:10.37,2013-05-05 15:48:00,
2013-05-05 10:53:00,49.6,48.2,30.13,North,0,5.0,12.0,95,0.00,CLR,SKC,0.01,WeatherDisplay:10.37,2013-05-05 15:53:00,
2013-05-05 10:58:00,49.5,47.9,30.13,North,6,2.0,13.0,94,0.00,CLR,SKC,0.01,WeatherDisplay:10.37,2013-05-05 15:58:00,
2013-05-05 11:03:00,49.6,47.9,30.13,North,3,2.0,13.0,94,0.00,CLR,SKC,0.01,WeatherDisplay:10.37,2013-05-05 16:03:00,
2013-05-05 11:08:00,49.7,47.8,30.13,NNW,346,1.0,3.0,93,0.00,CLR,SKC,0.01,WeatherDisplay:10.37,2013-05-05 16:08:00,
2013-05-05 11:13:00,49.7,47.8,30.13,North,3,6.0,10.0,93,0.00,CLR,SKC,0.01,WeatherDisplay:10.37,2013-05-05 16:13:00,
2013-05-05 11:18:00,49.9,48.3,30.13,NNE,18,3.0,5.0,94,0.00,CLR,SKC,0.01,WeatherDisplay:10.37,2013-05-05 16:18:00,
2013-05-05 11:28:00,50.1,47.8,30.13,NNW,347,9.0,15.0,92,0.00,CLR,SKC,0.01,WeatherDisplay:10.37,2013-05-05 16:28:00,
2013-05-05 11:38:00,50.3,48.1,30.13,NNW,344,2.0,12.0,92,0.00,CLR,SKC,0.01,WeatherDisplay:10.37,2013-05-05 16:38:00,
2013-05-05 11:43:00,50.6,48.4,30.13,NNW,334,2.0,11.0,92,0.00,CLR,SKC,0.01,WeatherDisplay:10.37,2013-05-05 16:43:00,
2013-05-05 11:48:00,51.0,48.7,30.13,NW,320,1.0,5.0,92,0.00,CLR,SKC,0.01,WeatherDisplay:10.37,2013-05-05 16:48:00,
2013-05-05 11:58:00,51.4,48.5,30.13,NNW,334,7.0,12.0,90,0.00,CLR,SKC,0.01,WeatherDisplay:10.37,2013-05-05 16:58:00,
2013-05-05 12:03:00,51.1,48.3,30.13,NW,323,2.0,8.0,90,0.00,CLR,SKC,0.01,WeatherDisplay:10.37,2013-05-05 17:03:00,
2013-05-05 12:08:00,51.1,48.3,30.13,NW,320,2.0,5.0,90,0.00,CLR,SKC,0.01,WeatherDisplay:10.37,2013-05-05 17:08:00,
2013-05-05 12:18:00,50.9,48.1,30.12,NNW,331,2.0,10.0,90,0.00,CLR,SKC,0.01,WeatherDisplay:10.37,2013-05-05 17:18:00,
2013-05-05 12:23:00,51.0,48.5,30.12,NW,314,3.0,8.0,91,0.00,CLR,SKC,0.01,WeatherDisplay:10.37,2013-05-05 17:23:00,
2013-05-05 12:28:00,51.1,48.3,30.12,NW,307,2.0,7.0,90,0.00,CLR,SKC,0.01,WeatherDisplay:10.37,2013-05-05 17:28:00,
2013-05-05 12:33:00,51.1,48.3,30.12,NW,315,1.0,5.0,90,0.00,CLR,SKC,0.01,WeatherDisplay:10.37,2013-05-05 17:33:00,
2013-05-05 12:38:00,51.1,48.3,30.12,NNW,329,2.0,8.0,90,0.00,CLR,SKC,0.01,WeatherDisplay:10.37,2013-05-05 17:38:00,
2013-05-05 12:43:00,51.0,48.2,30.12,NNW,331,2.0,10.0,90,0.00,CLR,SKC,0.01,WeatherDisplay:10.37,2013-05-05 17:43:00,
2013-05-05 12:48:00,51.1,48.5,30.12,NNW,332,3.0,10.0,91,0.00,CLR,SKC,0.01,WeatherDisplay:10.37,2013-05-05 17:48:00,
2013-05-05 12:58:00,51.5,48.7,30.12,NW,326,2.0,7.0,90,0.00,CLR,SKC,0.01,WeatherDisplay:10.37,2013-05-05 17:58:00,
2013-05-05 13:03:00,51.3,48.2,30.12,NW,304,1.0,7.0,89,0.00,CLR,SKC,0.01,WeatherDisplay:10.37,2013-05-05 18:03:00,
2013-05-05 13:08:00,51.3,48.5,30.12,WNW,293,1.0,8.0,90,0.00,CLR,SKC,0.01,WeatherDisplay:10.37,2013-05-05 18:08:00,
2013-05-05 13:13:00,51.5,48.7,30.12,NW,308,1.0,8.0,90,0.00,CLR,SKC,0.01,WeatherDisplay:10.37,2013-05-05 18:13:00,
2013-05-05 13:18:00,51.4,48.2,30.11,NW,310,2.0,11.0,89,0.00,CLR,SKC,0.01,WeatherDisplay:10.37,2013-05-05 18:18:00,
2013-05-05 13:28:00,51.6,48.8,30.11,NW,321,2.0,12.0,90,0.00,CLR,SKC,0.01,WeatherDisplay:10.37,2013-05-05 18:28:00,
2013-05-05 13:33:00,52.0,48.9,30.11,North,353,1.0,5.0,89,0.00,CLR,SKC,0.01,WeatherDisplay:10.37,2013-05-05 18:33:00,
2013-05-05 13:38:00,52.1,49.0,30.11,NW,325,1.0,8.0,89,0.00,CLR,SKC,0.01,WeatherDisplay:10.37,2013-05-05 18:38:00,
2013-05-05 13:43:00,51.8,48.3,30.11,NW,312,5.0,8.0,88,0.00,CLR,SKC,0.01,WeatherDisplay:10.37,2013-05-05 18:43:00,
2013-05-05 13:48:00,51.3,47.8,30.11,NW,310,3.0,8.0,88,0.00,CLR,SKC,0.01,WeatherDisplay:10.37,2013-05-05 18:48:00,
2013-05-05 13:53:00,51.0,47.9,30.12,NW,323,1.0,7.0,89,0.00,CLR,SKC,0.01,WeatherDisplay:10.37,2013-05-05 18:53:00,
2013-05-05 13:58:00,50.8,47.7,30.11,NNW,329,1.0,3.0,89,0.00,CLR,SKC,0.01,WeatherDisplay:10.37,2013-05-05 18:58:00,
2013-05-05 14:03:00,50.6,47.8,30.11,WNW,294,2.0,5.0,90,0.00,CLR,SKC,0.01,WeatherDisplay:10.37,2013-05-05 19:03:00,
2013-05-05 14:08:00,50.7,47.9,30.11,WNW,300,1.0,5.0,90,0.00,CLR,SKC,0.01,WeatherDisplay:10.37,2013-05-05 19:08:00,
2013-05-05 14:18:00,51.1,48.2,30.11,WNW,294,5.0,8.0,90,0.00,CLR,SKC,0.01,WeatherDisplay:10.37,2013-05-05 19:18:00,
2013-05-05 14:23:00,51.2,48.1,30.11,WNW,293,3.0,8.0,89,0.00,CLR,SKC,0.01,WeatherDisplay:10.37,2013-05-05 19:23:00,
2013-05-05 14:28:00,51.4,48.2,30.11,NW,304,3.0,10.0,89,0.00,CLR,SKC,0.01,WeatherDisplay:10.37,2013-05-05 19:28:00,
2013-05-05 14:33:00,51.7,48.5,30.11,NW,316,6.0,11.0,89,0.00,CLR,SKC,0.01,WeatherDisplay:10.37,2013-05-05 19:33:00,
2013-05-05 14:38:00,52.0,48.5,30.11,NW,315,7.0,12.0,88,0.00,CLR,SKC,0.01,WeatherDisplay:10.37,2013-05-05 19:38:00,
2013-05-05 14:43:00,52.3,48.5,30.10,NNW,327,3.0,12.0,87,0.00,CLR,SKC,0.01,WeatherDisplay:10.37,2013-05-05 19:43:00,
2013-05-05 14:48:00,52.8,49.3,30.10,NW,326,5.0,8.0,88,0.00,CLR,SKC,0.01,WeatherDisplay:10.37,2013-05-05 19:48:00,
2013-05-05 14:58:00,52.9,48.8,30.10,NNW,343,7.0,15.0,86,0.00,CLR,SKC,0.01,WeatherDisplay:10.37,2013-05-05 19:58:00,
2013-05-05 15:03:00,53.2,49.1,30.10,North,357,5.0,12.0,86,0.00,CLR,SKC,0.01,WeatherDisplay:10.37,2013-05-05 20:03:00,
2013-05-05 15:08:00,53.4,49.3,30.10,North,1,9.0,16.0,86,0.00,CLR,SKC,0.01,WeatherDisplay:10.37,2013-05-05 20:08:00,
2013-05-05 15:18:00,54.0,49.6,30.09,North,352,7.0,10.0,85,0.00,CLR,SKC,0.01,WeatherDisplay:10.37,2013-05-05 20:18:00,
2013-05-05 15:23:00,54.1,49.7,30.08,NNW,338,2.0,8.0,85,0.00,CLR,SKC,0.01,WeatherDisplay:10.37,2013-05-05 20:23:00,
2013-05-05 15:28:00,54.1,49.4,30.08,NW,325,6.0,13.0,84,0.00,CLR,SKC,0.01,WeatherDisplay:10.37,2013-05-05 20:28:00,
2013-05-05 15:38:00,55.0,50.3,30.08,NNW,347,6.0,13.0,84,0.00,CLR,SKC,0.01,WeatherDisplay:10.37,2013-05-05 20:38:00,
2013-05-05 15:48:00,55.7,50.6,30.08,NW,316,2.0,12.0,83,0.00,CLR,SKC,0.01,WeatherDisplay:10.37,2013-05-05 20:48:00,
2013-05-05 15:58:00,55.8,50.7,30.07,NNW,339,2.0,15.0,83,0.00,CLR,SKC,0.01,WeatherDisplay:10.37,2013-05-05 20:58:00,
2013-05-05 16:03:00,56.2,50.8,30.08,NNW,334,6.0,16.0,82,0.00,CLR,SKC,0.01,WeatherDisplay:10.37,2013-05-05 21:03:00,
2013-05-05 16:08:00,56.3,50.9,30.08,NNW,338,3.0,8.0,82,0.00,CLR,SKC,0.01,WeatherDisplay:10.37,2013-05-05 21:08:00,
2013-05-05 16:18:00,55.8,50.4,30.07,NW,310,3.0,10.0,82,0.00,CLR,SKC,0.01,WeatherDisplay:10.37,2013-05-05 21:18:00,
2013-05-05 16:23:00,55.9,50.5,30.07,NW,310,2.0,10.0,82,0.00,CLR,SKC,0.01,WeatherDisplay:10.37,2013-05-05 21:23:00,
2013-05-05 16:28:00,56.1,50.7,30.07,NW,314,2.0,7.0,82,0.00,CLR,SKC,0.01,WeatherDisplay:10.37,2013-05-05 21:28:00,
2013-05-05 16:33:00,56.1,50.7,30.07,WNW,299,6.0,15.0,82,0.00,CLR,SKC,0.01,WeatherDisplay:10.37,2013-05-05 21:33:00,
2013-05-05 16:38:00,56.0,50.6,30.07,WNW,302,3.0,6.0,82,0.00,CLR,SKC,0.01,WeatherDisplay:10.37,2013-05-05 21:38:00,
2013-05-05 19:28:00,53.4,49.3,30.07,NNW,339,2.0,12.0,86,0.00,CLR,SKC,0.01,WeatherDisplay:10.37,2013-05-06 00:28:00,
2013-05-05 19:38:00,53.2,49.5,30.08,NNW,333,0.0,7.0,87,0.00,CLR,SKC,0.01,WeatherDisplay:10.37,2013-05-06 00:38:00,
2013-05-05 19:43:00,53.1,49.4,30.08,NNW,338,2.0,6.0,87,0.00,CLR,SKC,0.01,WeatherDisplay:10.37,2013-05-06 00:43:00,
2013-05-05 19:48:00,53.0,49.3,30.08,NW,324,2.0,15.0,87,0.00,CLR,SKC,0.01,WeatherDisplay:10.37,2013-05-06 00:48:00,
2013-05-05 19:53:00,52.9,49.4,30.08,NW,323,5.0,15.0,88,0.00,CLR,SKC,0.01,WeatherDisplay:10.37,2013-05-06 00:53:00,
2013-05-05 19:58:00,52.7,49.3,30.07,NNW,334,2.0,8.0,88,0.00,CLR,SKC,0.01,WeatherDisplay:10.37,2013-05-06 00:58:00,
2013-05-05 20:03:00,52.6,49.2,30.07,NW,308,3.0,5.0,88,0.00,CLR,SKC,0.01,WeatherDisplay:10.37,2013-05-06 01:03:00,
2013-05-05 20:08:00,52.5,49.1,30.07,NW,306,2.0,5.0,88,0.00,CLR,SKC,0.01,WeatherDisplay:10.37,2013-05-06 01:08:00,
2013-05-05 20:13:00,52.4,49.0,30.06,NW,317,2.0,5.0,88,0.00,CLR,SKC,0.01,WeatherDisplay:10.37,2013-05-06 01:13:00,
2013-05-05 20:18:00,52.3,49.2,30.06,NW,316,2.0,8.0,89,0.00,CLR,SKC,0.01,WeatherDisplay:10.37,2013-05-06 01:18:00,
2013-05-05 20:28:00,52.2,49.1,30.06,WNW,302,1.0,10.0,89,0.00,CLR,SKC,0.01,WeatherDisplay:10.37,2013-05-06 01:28:00,
2013-05-05 20:38:00,52.1,49.3,30.07,NW,319,1.0,7.0,90,0.00,CLR,SKC,0.01,WeatherDisplay:10.37,2013-05-06 01:38:00,
2013-05-05 20:43:00,52.0,49.2,30.07,NW,308,0.0,8.0,90,0.00,CLR,SKC,0.01,WeatherDisplay:10.37,2013-05-06 01:43:00,
2013-05-05 20:48:00,52.0,49.2,30.06,WNW,299,1.0,7.0,90,0.00,CLR,SKC,0.01,WeatherDisplay:10.37,2013-05-06 01:48:00,
2013-05-05 20:53:00,51.9,49.1,30.06,WNW,295,3.0,10.0,90,0.00,CLR,SKC,0.01,WeatherDisplay:10.37,2013-05-06 01:53:00,
2013-05-05 20:58:00,51.9,49.1,30.07,WNW,300,0.0,5.0,90,0.00,CLR,SKC,0.01,WeatherDisplay:10.37,2013-05-06 01:58:00,
2013-05-05 21:03:00,51.8,49.0,30.07,NW,307,6.0,10.0,90,0.00,CLR,SKC,0.01,WeatherDisplay:10.37,2013-05-06 02:03:00,
2013-05-05 21:08:00,51.8,48.9,30.07,WNW,294,3.0,5.0,90,0.00,CLR,SKC,0.01,WeatherDisplay:10.37,2013-05-06 02:08:00,
2013-05-05 21:18:00,51.6,48.8,30.08,NNW,334,2.0,10.0,90,0.00,CLR,SKC,0.01,WeatherDisplay:10.37,2013-05-06 02:18:00,
2013-05-05 21:28:00,51.5,49.0,30.09,North,358,1.0,7.0,91,0.00,CLR,SKC,0.01,WeatherDisplay:10.37,2013-05-06 02:28:00,
2013-05-05 21:38:00,51.5,49.0,30.09,North,3,7.0,14.0,91,0.00,CLR,SKC,0.01,WeatherDisplay:10.37,2013-05-06 02:38:00,
2013-05-05 21:48:00,51.5,49.0,30.10,North,357,2.0,12.0,91,0.00,CLR,SKC,0.01,WeatherDisplay:10.37,2013-05-06 02:48:00,
2013-05-05 21:58:00,51.5,49.0,30.10,North,352,7.0,12.0,91,0.00,CLR,SKC,0.01,WeatherDisplay:10.37,2013-05-06 02:58:00,
2013-05-05 22:03:00,51.4,48.9,30.10,NW,322,7.0,18.0,91,0.00,CLR,SKC,0.01,WeatherDisplay:10.37,2013-05-06 03:03:00,
2013-05-05 22:08:00,51.3,48.8,30.10,NNW,335,8.0,18.0,91,0.00,CLR,SKC,0.01,WeatherDisplay:10.37,2013-05-06 03:08:00,
2013-05-05 22:13:00,51.1,48.6,30.10,NNW,345,3.0,12.0,91,0.00,CLR,SKC,0.01,WeatherDisplay:10.37,2013-05-06 03:13:00,
2013-05-05 22:18:00,51.0,48.5,30.10,NNW,348,3.0,12.0,91,0.00,CLR,SKC,0.01,WeatherDisplay:10.37,2013-05-06 03:18:00,
2013-05-05 22:28:00,50.9,48.4,30.09,NNW,328,2.0,7.0,91,0.00,CLR,SKC,0.01,WeatherDisplay:10.37,2013-05-06 03:28:00,
2013-05-05 22:38:00,50.9,48.7,30.10,NW,323,3.0,11.0,92,0.00,CLR,SKC,0.01,WeatherDisplay:10.37,2013-05-06 03:38:00,
2013-05-05 22:48:00,50.9,48.7,30.09,NW,310,0.0,5.0,92,0.00,CLR,SKC,0.01,WeatherDisplay:10.37,2013-05-06 03:48:00,
2013-05-05 22:53:00,50.9,48.7,30.09,NW,326,1.0,7.0,92,0.00,CLR,SKC,0.01,WeatherDisplay:10.37,2013-05-06 03:53:00,
2013-05-05 22:58:00,50.9,48.7,30.09,North,355,2.0,7.0,92,0.00,CLR,SKC,0.01,WeatherDisplay:10.37,2013-05-06 03:58:00,
2013-05-05 23:03:00,50.9,48.7,30.09,NNW,338,0.0,5.0,92,0.00,CLR,SKC,0.01,WeatherDisplay:10.37,2013-05-06 04:03:00,
2013-05-05 23:08:00,51.0,48.8,30.09,NW,317,2.0,5.0,92,0.00,CLR,SKC,0.01,WeatherDisplay:10.37,2013-05-06 04:08:00,
2013-05-05 23:13:00,51.0,48.8,30.09,NNW,332,0.0,5.0,92,0.00,CLR,SKC,0.01,WeatherDisplay:10.37,2013-05-06 04:13:00,
2013-05-05 23:18:00,51.0,48.8,30.09,NNW,345,2.0,10.0,92,0.00,CLR,SKC,0.01,WeatherDisplay:10.37,2013-05-06 04:18:00,
2013-05-05 23:28:00,51.1,48.9,30.09,NNW,345,2.0,5.0,92,0.00,CLR,SKC,0.01,WeatherDisplay:10.37,2013-05-06 04:28:00,
2013-05-05 23:38:00,51.1,48.9,30.08,North,358,0.0,3.0,92,0.00,CLR,SKC,0.01,WeatherDisplay:10.37,2013-05-06 04:38:00,
2013-05-05 23:48:00,51.2,49.0,30.09,NNE,22,3.0,13.0,92,0.00,CLR,SKC,0.01,WeatherDisplay:10.37,2013-05-06 04:48:00,
2013-05-05 23:53:00,51.2,49.0,30.09,NNE,13,6.0,12.0,92,0.00,CLR,SKC,0.01,WeatherDisplay:10.37,2013-05-06 04:53:00,
2013-05-05 23:58:00,51.3,49.0,30.09,NNW,333,3.0,8.0,92,0.00,RA,SKC,0.00,WeatherDisplay:10.37,2013-05-06 04:58:00,